Lexington Weather

Lexington, Massachusetts, USA

54°F
5/18/2024 12:58am 
  • Lexington Conditions: Clear
  • Temperature: 54.0°F / 12.2°CColder 0.7°F than last hour.
  • Dew Point: 50.2°FIncreased 0.2°Fsince last hour.
  • Relative Humidity: 87%Increased 3.0% since last hour.
  • Wind: Calm, 10-min avg: Calm, gust: None
  • Barometer: 29.95 in Steady
  • Visibility: 10 miles
  • Rain Today: 0.00 in
  •   

Regional Weather Roundup
for Boston, MA

        
000
ASUS41 KBOX 161610
RWRBOX

REGIONAL WEATHER ROUNDUP
NATIONAL WEATHER SERVICE BOSTON/NORTON MA
1200 PM EDT THU MAY 16 2024

NOTE:  "FAIR" INDICATES FEW OR NO CLOUDS BELOW 12,000 FEET WITH NO 
SIGNIFICANT WEATHER AND/OR OBSTRUCTIONS TO VISIBILITY.

MAZALL-161700-
EASTERN MASSACHUSETTS
  
CITY           SKY/WX    TMP DP  RH WIND       PRES   REMARKS
BOSTON         LGT RAIN  56  53  90 NE15      29.86R                  
BEVERLY        CLOUDY    61  55  81 NE8       29.86R                  
LAWRENCE       CLOUDY    62  54  74 E8        29.88R                  
BEDFORD        CLOUDY    60  56  86 E10       29.84R                  
NORWOOD        LGT RAIN  59  56  89 NE10      29.84R FOG              
MARSHFIELD     LGT RAIN  54  54 100 VRB7G15   29.83S                  
PLYMOUTH       LGT RAIN  55  54  96 NE12      29.80S FOG              
TAUNTON        LGT RAIN  60  56  86 E9        29.80R FOG              
NEW BEDFORD    LGT RAIN  59  58  96 NE15G23   29.76S FOG              
$$

MAZALL-161700-
CAPE COD AND THE ISLANDS
  
CITY           SKY/WX    TMP DP  RH WIND       PRES   REMARKS
FALMOUTH       LGT RAIN  59  59 100 E16       29.78R VSB 1            
HYANNIS        LGT RAIN  57  56  96 E14G25    29.75R VSB 1            
CHATHAM        LGT RAIN  54  53  97 NE13G23   29.79S FOG              
PROVINCETOWN   CLOUDY    54  54 100 E15       29.83S                  
NANTUCKET      CLOUDY    56  55  97 E21G33    29.73R                  
MARTHAS VNYRD  LGT RAIN  57  56  96 E17G30    29.74R FOG              
$$
 
MAZALL-161700-
CENTRAL AND WESTERN MASSACHUSETTS
  
CITY           SKY/WX    TMP DP  RH WIND       PRES   REMARKS
WORCESTER      LGT RAIN  57  55  93 NE10G24   29.83S FOG              
FITCHBURG      CLOUDY    63  55  75 VRB7      29.85F                  
ORANGE         LGT RAIN  62  57  83 NE9       29.85S                  
SPRINGFIELD    LGT RAIN  59  57  94 N15       29.79R                  
WESTFIELD      LGT RAIN  59  57  93 N9        29.81R                  
NORTH ADAMS    CLOUDY    65  54  67 E8        29.84R                  
PITTSFIELD     LGT RAIN  58  53  84 E8G18     29.83R                  
$$
 
RIZALL-161700-
RHODE ISLAND
  
CITY           SKY/WX    TMP DP  RH WIND       PRES   REMARKS
PROVIDENCE     LGT RAIN  59  59 100 NE18G26   29.78R FOG              
NEWPORT        LGT RAIN  58  58 100 NE17G24   29.75R FOG              
BLOCK ISLAND   LGT RAIN  54  54 100 NE14G21   29.73S FOG              
SMITHFIELD     LGT RAIN  57  57 100 NE10G17   29.81S FOG              
WESTERLY       LGT RAIN  59  57  93 NE8G21    29.73S FOG              
$$
 
CTZALL-161700-
CONNECTICUT
  
CITY           SKY/WX    TMP DP  RH WIND       PRES   REMARKS
BRADLEY INTL   LGT RAIN  61  57  87 N12       29.80R FOG              
HARTFORD       LGT RAIN  61  58  90 N12       29.77R                  
PLAINVILLE     LGT RAIN  59  58  99 NE12      29.77R                  
BRIDGEPORT     LGT RAIN  63  58  83 NE14G31   29.72R                  
DANBURY        CLOUDY    63  55  75 NE10G24   29.75R                  
GROTON         LGT RAIN  63  62  97 NE20G28   29.71F                  
NEW HAVEN      CLOUDY    63  61  93 NE15G22   29.72R FOG              
CHESTER        CLOUDY    61  61 100 NE9G16    29.74R FOG              
MERIDEN        LGT RAIN  60  56  86 N8G21     29.75R                  
WILLIMANTIC    LGT RAIN  60  57  89 NE17G25   29.76S                  
OXFORD         LGT RAIN  58  56  93 NE16G29   29.76R FOG              
$$

MEZ002-015-021-024-NHZ003-005-008-011-012-014-VTZ005-008-161700-
NORTHERN NEW ENGLAND
  
CITY           SKY/WX    TMP DP  RH WIND       PRES   REMARKS
PORTLAND ME    CLOUDY    64  47  53 E8        29.92R                  
BANGOR ME      PTSUNNY   73  58  59 VRB3      29.90F                  
CONCORD NH     CLOUDY    68  56  65 E10       29.88S                  
MANCHESTER NH  CLOUDY    67  55  65 NE10G17   29.86S                  
NASHUA NH      CLOUDY    67  60  78 E10       29.86F                  
PORTSMOUTH NH  CLOUDY    66  54  65 E10       29.87S                  
JAFFREY NH     CLOUDY    62  56  80 MISG      29.87R                  
KEENE NH       CLOUDY    63  57  81 VRB3      29.86S                  
BURLINGTON VT  PTSUNNY   69  59  70 W6        29.87S                  
MT. WASHINGTON FOG       41  41 100 E29         N/A  VSB 0   WCI  30  
$$

NYZ052-076-161700-
EASTERN NEW YORK
  
CITY           SKY/WX    TMP DP  RH WIND       PRES   REMARKS
ALBANY         LGT RAIN  68  58  70 N6        29.84S                  
NEW YORK CITY  CLOUDY    62  55  77 NE16      29.71R                  
$$
 
ANZALL-161700-
MARINE OBSERVATIONS
  
STATION/POSITION TIME  TEMP    WIND        PRES    VSBY  WAVE
                       AIR SEA DIR/SP/G                  HT/PER
                 (UTC) (F)     (DEG/KT/KT) (MB)    (MI)  (FT/S)
BOSTON BUOY      1550   53 52   50/ 12/ 16 1011.1R         3/ 4
BUZZARDS BAY     1500   56      70/ 24/ 26 1006.9R
NANTUCKET SOUND  1550   55 54   70/ 21/ 25 1006.9R         4/ 4
MASS BAY-STELLWA 1404   54 52   50/ 14/ 16 1010.3R  1 7/8  3/ 4
ISLE OF SHOALS   1500   55      40/ 17/ 19 1010.9R
S OF BLOCK IS    1556      49                N/A           8/10
$$

......................KEY.........................
  SKY/WX - SKY CONDITION/PRESENT WEATHER
  TMP    - TEMPERATURE IN FAHRENHEIT
  DWPT   - DEWPOINT IN FAHRENHEIT
  RH     - RELATIVE HUMIDITY IN PERCENT
  WIND   - DIRECTION AND SPEED IN MPH
  PRES   - MEAN SEA LEVEL PRESSURE IN INCHES OF HG
  WCI    - WIND CHILL INDEX
  VSB    - VISIBILITY IN MILES
  HX     - HEAT INDEX
  TC     - TEMPERATURE IN CELSIUS
  VRB    - VARIABLE WIND DIRECTION
  N/A    - NOT AVAILABLE
  
      

Other recent Regional Weather Roundups

Sat May 18, 12:10am EDT

Fri May 17, 11:10pm EDT

Fri May 17, 10:10pm EDT

Fri May 17, 9:10pm EDT

Fri May 17, 8:10pm EDT

Fri May 17, 7:10pm EDT

Fri May 17, 6:10pm EDT

Fri May 17, 5:10pm EDT

Fri May 17, 4:10pm EDT

Fri May 17, 3:10pm EDT

Fri May 17, 2:10pm EDT

Fri May 17, 1:10pm EDT

Fri May 17, 12:10pm EDT

Fri May 17, 11:10am EDT

Fri May 17, 10:10am EDT

Fri May 17, 9:10am EDT

Fri May 17, 8:10am EDT

Fri May 17, 7:10am EDT

Fri May 17, 6:10am EDT

Fri May 17, 5:10am EDT

Fri May 17, 4:10am EDT

Fri May 17, 3:10am EDT

Fri May 17, 2:10am EDT

Fri May 17, 1:10am EDT

Fri May 17, 12:10am EDT

Thu May 16, 11:10pm EDT

Thu May 16, 10:10pm EDT

Thu May 16, 9:10pm EDT

Thu May 16, 8:10pm EDT

Thu May 16, 7:10pm EDT

Thu May 16, 6:10pm EDT

Thu May 16, 5:10pm EDT

Thu May 16, 4:10pm EDT

Thu May 16, 3:10pm EDT

Thu May 16, 2:10pm EDT

Thu May 16, 1:10pm EDT

Thu May 16, 11:10am EDT

Thu May 16, 10:10am EDT

Thu May 16, 9:10am EDT

Thu May 16, 8:10am EDT

Thu May 16, 7:10am EDT

Thu May 16, 6:10am EDT

Thu May 16, 5:10am EDT

Thu May 16, 4:10am EDT

Thu May 16, 3:10am EDT

Thu May 16, 2:10am EDT

Thu May 16, 1:10am EDT

Thu May 16, 12:10am EDT

Wed May 15, 11:10pm EDT

Wed May 15, 10:10pm EDT

Wed May 15, 9:10pm EDT

Wed May 15, 8:10pm EDT

Wed May 15, 7:10pm EDT

Wed May 15, 6:10pm EDT

Wed May 15, 5:10pm EDT

Wed May 15, 4:10pm EDT

Wed May 15, 3:10pm EDT

Wed May 15, 2:10pm EDT

Wed May 15, 1:10pm EDT

Wed May 15, 12:10pm EDT

Wed May 15, 11:10am EDT

Wed May 15, 10:10am EDT

Wed May 15, 9:10am EDT

Wed May 15, 8:10am EDT

Wed May 15, 7:10am EDT

Wed May 15, 6:10am EDT

Wed May 15, 5:10am EDT

Wed May 15, 4:10am EDT

Wed May 15, 3:10am EDT

Wed May 15, 2:10am EDT

Wed May 15, 1:10am EDT

Wed May 15, 12:10am EDT

Tue May 14, 11:10pm EDT

Tue May 14, 10:10pm EDT

Tue May 14, 9:10pm EDT

Tue May 14, 8:10pm EDT

Tue May 14, 7:10pm EDT

Tue May 14, 6:10pm EDT

Tue May 14, 5:10pm EDT

Tue May 14, 4:10pm EDT

Tue May 14, 3:10pm EDT

Tue May 14, 2:10pm EDT

Tue May 14, 1:10pm EDT

Tue May 14, 12:10pm EDT

Tue May 14, 11:10am EDT

Tue May 14, 10:10am EDT

Tue May 14, 9:10am EDT

Tue May 14, 8:10am EDT

Tue May 14, 7:10am EDT

Tue May 14, 6:10am EDT

Tue May 14, 5:10am EDT

Tue May 14, 4:10am EDT

Tue May 14, 3:10am EDT

Tue May 14, 2:10am EDT

Tue May 14, 1:10am EDT

Tue May 14, 12:10am EDT

Mon May 13, 11:10pm EDT

Mon May 13, 10:10pm EDT

Mon May 13, 9:10pm EDT

Mon May 13, 8:10pm EDT

Mon May 13, 7:10pm EDT

Mon May 13, 6:10pm EDT

Mon May 13, 5:10pm EDT

Mon May 13, 4:10pm EDT

Mon May 13, 3:10pm EDT

Mon May 13, 2:10pm EDT

Mon May 13, 1:10pm EDT

Mon May 13, 12:10pm EDT

Mon May 13, 11:10am EDT

Mon May 13, 10:10am EDT

Mon May 13, 9:10am EDT

Mon May 13, 8:10am EDT

Mon May 13, 7:10am EDT

Mon May 13, 6:10am EDT

Mon May 13, 5:10am EDT

Mon May 13, 4:10am EDT

Mon May 13, 3:10am EDT

Mon May 13, 2:10am EDT

Mon May 13, 1:10am EDT

Mon May 13, 12:10am EDT

Sun May 12, 11:10pm EDT

Sun May 12, 10:10pm EDT

Sun May 12, 9:10pm EDT

Sun May 12, 8:10pm EDT

Sun May 12, 7:10pm EDT

Sun May 12, 6:10pm EDT

Sun May 12, 5:10pm EDT

Sun May 12, 4:10pm EDT

Sun May 12, 3:10pm EDT

Sun May 12, 2:10pm EDT

Sun May 12, 1:10pm EDT

Sun May 12, 12:10pm EDT

Sun May 12, 11:10am EDT

Sun May 12, 10:10am EDT

Sun May 12, 9:10am EDT

Sun May 12, 8:10am EDT

Sun May 12, 7:10am EDT

Sun May 12, 6:10am EDT

Sun May 12, 5:10am EDT

Sun May 12, 4:10am EDT

Sun May 12, 3:10am EDT

Sun May 12, 2:10am EDT

Sun May 12, 1:10am EDT

Sun May 12, 12:10am EDT

Sat May 11, 11:10pm EDT

Sat May 11, 10:10pm EDT

Sat May 11, 9:10pm EDT

Sat May 11, 8:10pm EDT

Sat May 11, 7:10pm EDT

Sat May 11, 6:10pm EDT

Sat May 11, 5:10pm EDT

Sat May 11, 4:10pm EDT

Sat May 11, 3:10pm EDT

Sat May 11, 2:10pm EDT

Sat May 11, 1:10pm EDT

Sat May 11, 12:10pm EDT

Sat May 11, 11:10am EDT

Sat May 11, 10:10am EDT

Sat May 11, 9:10am EDT

Sat May 11, 8:10am EDT

Sat May 11, 7:10am EDT

Sat May 11, 6:10am EDT

Sat May 11, 5:10am EDT

Sat May 11, 4:10am EDT

Sat May 11, 3:10am EDT

Sat May 11, 2:10am EDT

Sat May 11, 1:10am EDT